Flag for Chad Weather past 2 weeks in Ndjamena, Chad

Now
93 °F

Sunny.


Feels Like: 107 °F
Forecast: 82 / 108 °F
Wind: 15 mph from Southwest

Location: Ndjamena

Current Time: May 30, 2015 at 10:23:07 AM

Latest Report: May 30, 2015 at 9:00 AM


Visibility: 10 mi

Pressure: 29.80 "Hg

Humidity: 59%

Dew point: 77 °F

Location of NdjamenaLocation

Historic Weather in Ndjamena — Graph

°F

Ndjamena temperature yesterday

Maximum temperature yesterday: 109 °F (at 2:00 PM)
Minimum temperature yesterday: 82 °F (at 6:00 AM)
Average temperature yesterday: 97 °F

Past Weeks' High & Low Weather Summary

 TemperatureHumidityPressure
High111 °F (May 18, 2:00 PM)84% (May 26, 6:00 AM)29.89 "Hg (May 26, 6:00 AM)
Low79 °F (May 17, 5:00 AM)11% (May 18, 1:00 PM)29.62 "Hg (May 29, 5:00 PM)
Average96 °F42%29.77 "Hg
* Reported May 15 9:00 AM — May 30 9:00 AM, Ndjamena, Weather by CustomWeather, © 2015

Note: Actual official high and low records may vary slightly from our data, if they occured in-between our weather recording intervals... More about our weather records

Advertising

Ndjamena weather history for previous 24 hours

 ConditionsComfort  
Time TempWeatherWind HumidityBarometerVisibility
9:00 AM
Sat, May 30
93 °FSunny.15 mph59%29.80 "Hg10 mi
8:00 AM90 °FSunny.17 mph67%29.80 "Hg10 mi
7:00 AM90 °FSunny.14 mph67%29.77 "Hg10 mi
6:00 AM88 °FSunny.13 mph66%29.77 "Hg10 mi
5:00 AM88 °FClear.12 mph66%29.77 "Hg10 mi
4:00 AM90 °FPassing clouds.7 mph59%29.77 "HgN/A
3:00 AM91 °FPassing clouds.7 mph59%29.77 "HgN/A
2:00 AM93 °FClear.8 mph56%29.71 "Hg10 mi
1:00 AM93 °FClear.9 mph53%29.71 "Hg10 mi
12:00 AM95 °FClear.13 mph50%29.74 "Hg10 mi
11:00 PM
Fri, May 29
93 °FClear.No wind53%29.71 "Hg10 mi
10:00 PM95 °FClear.No wind47%29.71 "Hg10 mi
9:00 PM99 °FClear.No wind42%29.71 "Hg10 mi
8:00 PM99 °FClear.No wind39%29.68 "Hg10 mi
7:00 PM104 °FExtremely hot.N/A12%N/AN/A
6:00 PM106 °FClear.7 mph30%29.62 "Hg4 mi
5:00 PM108 °FScattered clouds.5 mph26%29.62 "HgN/A
4:00 PM108 °FScattered clouds.7 mph30%29.65 "HgN/A
3:00 PM109 °FPassing clouds.5 mph28%29.65 "HgN/A
2:00 PM109 °FScattered clouds.5 mph30%29.68 "HgN/A
1:00 PM108 °FPassing clouds.5 mph32%29.71 "HgN/A
12:00 PM106 °FSunny.No wind36%29.74 "Hg10 mi
11:00 AM102 °FSunny.5 mph42%29.77 "Hg10 mi
10:00 AM99 °FSunny.No wind50%29.80 "Hg10 mi
Weather by CustomWeather, © 2015

See weather overviewHow to use our weather pages